www.pogodaiklimat.ru

Погода и климат >> Архив погоды >> Боливия >> San Matias


ПОГОДА в San Matias

  • Прогноз погоды в San Matias
  • Монитор погоды в San Matias
  • Климат города

АРХИВ ПОГОДЫ в San Matias

Время (UTC), дата Ветер
(напр.,м/с)
 
Видим.   Явления Облачность Т
(С)
Тd
(С)
f
(%)
Тe
(С)
Тes
(С)
Комфортность P
(гПа)
Po
(гПа)
Тmin
(С)
Tmax
(С)
R
(мм)
R24
(мм)
S
(см)
12 19.06 Ю 8 30 км 10/0 2000 м
[As op Ci]
+16.8 +12.8 77 +15 +15 1023.0 1012.0 +14.0
15 19.06 Ю 8 30 км 10/0 2000 м
[As op]
+17.0 +10.2 64 +16 +16 1024.4 1014.0
18 19.06 Ю 8 30 км 10/8 900 м
[Sc As op]
+25.0 +9.8 38 +26 +26 жарко 1023.4 1012.7
21 19.06 Ю 8 30 км 10/0 2000 м
[As op]
+15.2 +9.3 68 +13 +13 1023.4 1012.5 +17.0
12 20.06 Ю 3 30 км 10/10 300 м
[Sc]
+13.0 +10.8 86 +12 +12 1024.4 1014.0 +11.0
15 20.06 штиль 0 30 км 10/10 450 м
[Sc]
+15.8 +11.8 77 +16 +16 1025.4 1014.0
18 20.06 штиль 0 30 км 10/10 450 м
[Sc]
+16.6 +12.3 76 +17 +17 1022.5 1011.0
21 20.06 штиль 0 30 км 10/0 2000 м
[As op]
+16.0 +12.7 81 +16 +16 1021.5 1010.0 +17.0
12 21.06 штиль 0 30 км 10/10 300 м
[Sc]
+14.0 +13.2 95 +14 +14 1022.4 1011.4 +11.0
15 21.06 штиль 0 30 км 10/10 450 м
[Sc]
+18.2 +15.0 82 +18 +18 1023.0 1012.0
18 21.06 штиль 0 30 км ясно +24.0 +17.4 67 +28 +40 душно 1019.4 1008.5
21 21.06 штиль 0 30 км ясно +23.2 +18.2 73 +29 +29 душно 1018.0 1007.0 +25.0
12 22.06 штиль 0 100 м туман ?/? +16.7 +16.4 98 +17 +17 1019.0 1008.0 +13.0
15 22.06 штиль 0 30 км ясно +23.3 +19.2 78 +30 +46 очень
душно
1018.5 1007.0
18 22.06 СЗ 3 30 км ясно +30.0 +20.2 56 +37 +45 очень
душно
1015.5 1004.2
21 22.06 штиль 0 30 км ясно +29.0 +20.3 59 +35 +36 очень
душно
1013.5 1002.6 +32.0
12 23.06 штиль 0 30 км ясно +18.0 +17.2 95 +18 +22 1017.0 1006.0 +15.0
15 23.06 С 4 30 км ясно +30.0 +16.7 45 +34 +42 очень
душно
1017.4 1006.5
18 23.06 С 5 30 км ясно +32.7 +16.0 37 +35 +40 душно 1014.4 1004.0
21 23.06 С 3 30 км ясно +29.0 +19.0 55 +34 +35 очень
душно
1013.5 1003.0 +33.0
12 24.06 штиль 0 30 км 6/0 2000 м
[Ac trans Ci fib]
+19.2 +16.5 84 +21 +23 комфорт 1018.4 1007.6 +16.0
15 24.06 С 3 30 км ясно +30.0 +16.7 45 +34 +45 очень
душно
1019.5 1008.0
18 24.06 С 5 30 км ясно +33.0 +18.8 43 +38 +43 очень
душно
1016.4 1006.0
21 24.06 штиль 0 30 км ясно +30.6 +18.6 49 +36 +36 очень
душно
1015.6 1005.4 +33.0
12 25.06 штиль 0 30 км ясно +18.0 +16.4 90 +18 +22 1019.4 1008.5 +15.0
15 25.06 штиль 0 30 км ясно +30.0 +18.5 50 +35 +52 опасность
солнечного
удара
1019.4 1008.0
18 25.06 С 4 30 км ясно +34.0 +18.3 39 +38 +44 очень
душно
1016.5 1005.5

 

Местоположение метеостанции San Matias (Боливия): широта -16.33 долгота -58.38 высота над уровнем моря 124 м.

В архиве по умолчанию представлена погода в San Matias за последнюю неделю. Архивные данные за месяц целиком и за предыдущие месяцы, начиная с января 2011 года, Вы можете получить, выбрав интересующий диапазон дат из раскрывающегося списка и нажав кнопку "Ввод!".

Внимание! Время в таблицах - всемирное. Для получения местного времени необходимо прибавить поправку, которая в San Matias равна -4 ч.

Смотрите также архив погоды в соседних городах и на ближайших метеорологических станциях:

Погода в Caceres (Бразилия) (81 км)
Погода в Cuiaba (Бразилия) (255 км)
Погода в Robore (Боливия) (265 км)
Погода в San Ignacio De Vela (Боливия) (275 км)
Погода в Diamantino (Бразилия) (298 км)
Погода в San Jose De Chiquit (Боливия) (299 км)
Погода в Puerto Suarez (Боливия) (301 км)
Погода в Concepcion (Боливия) (388 км)
Погода в Poxoreo (Бразилия) (431 км)
Погода в San Javier (Боливия) (436 км)

Пояснения к столбцам:

Ветер - указаны скорость ветра в м/с - средняя за 10 мин, порывы в срок и между сроками (в фигурных скобках) и направление, откуда дует ветер: С - северный, СВ - северо-восточный, В - восточный, ЮВ - юго-восточный, Ю - южный, ЮЗ - юго-западный, З - западный, СЗ - северо-западный.
Видимость - горизонтальная дальность видимости в метрах или километрах. При видимости от 1 до 10 км при отсутствии осадков обычно наблюдается дымка, при ухудшении видимости до 1 км и менее - туман. В сухую погоду видимость может ухудшаться дымом, пылью или мглою.
Явления - указаны атмосферные явления, наблюдавшиеся в срок или в последний час перед сроком; фигурными скобками обозначены явления, наблюдавшиеся между сроками (за 1-3 часа до срока); квадратными скобками обозначены град или гололедные отложения с указанием их диаметра в мм.
Облачность - указаны через наклонную черту общая и нижняя облачность в баллах и высота нижней границы облаков в метрах; квадратными скобками обозначены формы облаков: Ci - перистые, Cs - перисто-слоистые, Cc - перисто-кучевые, Ac - высококучевые, As - высокослоистые, Sc - слоисто-кучевые, Ns - слоисто-дождевые, Cu - кучевые, Cb - кучево-дождевые. Подробнее классификацию облаков см. в Атласе облаков (PDF).
T - Температура воздуха - температура, измеренная на высоте 2 м над землей.
Td - Температура точки росы - температура, при понижении до которой содержащийся в воздухе водяной пар достигнет насыщения.
f - Относительная влажность воздуха - влажноcть воздуха, измеренная на высоте 2 м над землей.
Te - Эффективная температура - температура, которую ощущает одетый по сезону человек в тени. Характеристика душности погоды. При расчете учитывается влияние влажности воздуха и скорости ветра на теплоощущения человека.
Tes - Эффективная температура на солнце - температура, которую ощущает человек, с поправкой на солнечный нагрев. Характеристика знойности погоды. Зависит от высоты солнца над горизонтом, облачности и скорости ветра. Ночью, в пасмурную погоду, а также при ветре 12 м/с и более поправка равна нулю.
P - Атмосферное давление - приведенное к уровню моря атмосферное давление.
Po - Атмосферное давление - измеренное на уровне метеостанции атмосферное давление.
Tmin - Минимальная температура - минимум температуры воздуха на высоте 2 м над землей.
Tmax - Максимальная температура - максимум температуры воздуха на высоте 2 м над землей.
R - Количество осадков - Количество выпавших осадков за период времени, мм. При наведении курсора мыши на число - период времени, за который выпало указанное количество осадков.
R24 - Количество осадков - Количество выпавших осадков за 24 часа, мм.
S - Снежный покров - Высота снежного покрова, см. При наведении курсора мыши на число - состояние снежного покрова и степень покрытия местности в баллах.